This is the latest recevied weather packets stored in our database for station/object IK2YOU-3. If no packets are shown the sender has not sent any weather packets the latest 10 day(s).
| Time | Temp. | Humidity | Pressure | Rain* | Wind** | Luminosity | Snow |
|---|---|---|---|---|---|---|---|
| 1777727052 | 24.44° C | 26% | 1020.3 hPa | 0 mm | - | 465 W/m² | - |
| 1777726453 | 24.44° C | 24% | 1020.4 hPa | 0 mm | - | 521 W/m² | - |
| 1777725853 | 23.89° C | 25% | 1020.5 hPa | 0 mm | - | 524 W/m² | - |
| 1777725252 | 24.44° C | 26% | 1020.7 hPa | 0 mm | - | 488 W/m² | - |
| 1777724652 | 23.89° C | 24% | 1020.9 hPa | 0 mm | - | 494 W/m² | - |
| 1777724194 | 23.89° C | 27% | 1021.1 hPa | 0 mm | - | 544 W/m² | - |
| 1777723450 | 23.33° C | 27% | 1021.2 hPa | 0 mm | - | 537 W/m² | - |
| 1777722980 | 23.33° C | 27% | 1021.5 hPa | 0 mm | - | 567 W/m² | - |
| 1777722248 | 23.33° C | 28% | 1021.5 hPa | 0 mm | - | 538 W/m² | - |
| 1777721648 | 23.89° C | 25% | 1021.6 hPa | 0 mm | - | 576 W/m² | - |
| 1777721047 | 23.33° C | 27% | 1021.8 hPa | 0 mm | - | 576 W/m² | - |
| 1777720476 | 23.33° C | 28% | 1021.9 hPa | 0 mm | - | 564 W/m² | - |
| 1777719847 | 23.33° C | 28% | 1022 hPa | 0 mm | - | 573 W/m² | - |
| 1777719245 | 22.78° C | 31% | 1022.2 hPa | 0 mm | - | 489 W/m² | - |
| 1777718645 | 22.78° C | 29% | 1022.4 hPa | 0 mm | - | 520 W/m² | - |
| 1777718046 | 22.22° C | 33% | 1022.6 hPa | 0 mm | - | 607 W/m² | - |
| 1777717443 | 22.22° C | 32% | 1022.8 hPa | 0 mm | - | 561 W/m² | - |
| 1777716843 | 21.67° C | 33% | 1022.9 hPa | 0 mm | - | 444 W/m² | - |
| 1777716370 | 22.22° C | 34% | 1023.1 hPa | 0 mm | - | 529 W/m² | - |
| 1777715643 | 22.22° C | 35% | 1023.2 hPa | 0 mm | - | 495 W/m² | - |
| 1777715042 | 21.67° C | 33% | 1023.3 hPa | 0 mm | - | 516 W/m² | - |
| 1777714443 | 21.11° C | 35% | 1023.4 hPa | 0 mm | - | 535 W/m² | - |
| 1777713842 | 21.11° C | 34% | 1023.5 hPa | 0 mm | - | 502 W/m² | - |
| 1777713242 | 20.56° C | 39% | 1023.6 hPa | 0 mm | - | 507 W/m² | - |
| 1777712643 | 20.56° C | 35% | 1023.7 hPa | 0 mm | - | 541 W/m² | - |
* Rain latest hour (hover to see other rain measurements)
** Current wind speed in m/s (hover to see current wind gust speed)